SCP
0 0 0 0 0 -0 -0 -0 -0 0 0 0 0 0 0 0 0 0 0 0 0 0 0 0 0 0 0 0 0 0 0 0 0 0 0 0 0 0 0 0 0 0 0 0
0 0 0 0 0 0 -0 -0 -0 0 0 0 0 0 0 0 0 0 0 0 0 0 0 0 0 0 0 0 0 0 0 0 0 0 0 0 0 0 0 0 0 0 0 0
0 0 0 0 0 0 0 0 0 0 0 0 0 0 0 0 0 0 0 0 0 0 0 0 0 0 0 0 0 0 0 0 0 0 0 0 0 0 0 0 0 0 0 0
0 0 0 0 0 0 0 0 0 0 0 0 0 0 0 0 0 0 0 0 0 0 0 0 0 0 0 0 0 0 0 0 0 0 0 0 0 0 0 0 0 0 0 0
0 0 0 0 0 0 0 0 0 0 0 0 0 0 0 0 0 0 0 0 0 0 0 0 0 0 0 0 0 0 0 0 0 0 0 0 0 0 0 0 0 0 0 0
0 0 0 0 0 0 0 0 0 0 0 0 0 0 0 0 0 0 0 0 0 0 0 0 0 0 0 0 0 0 0 0 0 0 0 0 0 0 0 0 0 0 0 0
0 0 0 0 0 0 0 0 0 0 0 0 0 0 0 0 0 0 0 0 0 0 0 0 0 0 0 0 0 0 0 0 0 0 0 0 0 0 0 0 0 0 0 0
0 0 0 0 0 0 0 0 0 0 0 0 0 0 0 0 0 0 0 0 0 0 0 0 0 0 0 0 0 0 0 0 0 0 0 0 0 0 0 0 0 0 0 0
0 0 0 0 0 0 0 0 0 0 0 0 0 0 0 0 0 0 0 0 0 0 0 0 0 0 0 0 0 0 0 0 0 0 0 0 0 0 0 0 0 0 0 0
0 0 0 0 0 0 0 0 0 0 0 0 0 0 0 0 0 0 0 0 0 0 0 0 0 0 0 0 0 0 0 0 0 0 0 0 0 0 0 0 0 0 0 0
0 0 0 0 0 0 0 0 0 0 0 0 0 0 0 0 0 0 0 0 0 0 0 0 0 0 0 0 0 0 0 0 0 0 0 0 0 0 0 0 0 0 0 0
0 0 0 0 0 0 0 0 0 0 0 0 0 0 0 0 0 0 0 0 0 0 0 0 0 0 0 0 0 0 0 0 0 0 0 0 0 0 0 0 0 0 0 0
0 0 0 0 0 0 0 0 0 0 0 0 0 0 0 0 0 0 0 0 0 0 0 0 0 0 0 0 0 0 0 0 0 0 0 0 0 0 0 0 0 0 0 0
0 0 0 0 0 0 0 0 0 0 0 0 0 0 0 0 0 0 0 0 0 0 0 0 0 0 0 0 0 0 0 0 0 0 0 0 0 0 0 0 0 0 0 0
0 0 0 0 0 0 0 0 0 0 0 0 0 0 0 0 0 0 0 0 0 0 0 0 0 0 0 0 0 0 0 0 0 0 0 0 0 0 0 0 0 0 0 0
0 0 0 0 0 0 0 0 0 0 0 0 0 0 0 0 0 0 0 0 0 0 0 0 0 0 0 0 0 0 0 0 0 0 0 0 0 0 0 0 0 0 0 0
0 0 0 0 0 0 0 0 0 0 0 0 0 0 0 0 0 0 0 0 0 0 0 0 0 0 0 0 0 0 0 0 0 0 0 0 0 0 0 0 0 0 0 0
0 0 0 0 0 0 0 0 0 0 0 0 0 0 0 0 0 0 0 0 0 0 0 0 0 0 0 0 0 0 0 0 0 0 0 0 0 0 0 0 0 0 0 0
0 0 0 0 0 0 0 -0 -0 0 0 0 0 0 0 0 0 0 0 0 0 0 0 0 0 0 0 0 0 0 0 0 0 0 0 0 0 0 0 0 0 0 0 0
0 0 0 0 0 -0 0 0 0 0 0 0 0 0 0 0 0 0 0 0 0 0 0 0 0 0 0 0 0 0 0 0 0 0 0 0 0 0 0 0 0 0 0 0
0 0 0 0 0 0 0 0 0 0 0 0 0 0 0 0 0 0 0 0 0 0 0 0 0 0 0 0 0 0 0 0 0 0 0 0 0 0 0 0 0 0 0 0
0 0 0 0 0 0 0 0 0 0 0 0 0 0 0 0 0 0 0 0 0 0 0 0 0 0 0 0 0 0 0 0 0 0 0 0 0 0 0 0 0 0 0 0
0 0 0 0 0 0 0 0 0 0 0 0 0 0 0 0 0 0 0 0 0 0 0 0 0 0 0 0 0 0 0 0 0 0 0 0 0 0 0 0 0 0 0 0
0 0 0 0 0 0 0 0 0 0 0 0 0 0 0 0 0 0 0 0 0 0 0 0 0 0 0 0 0 0 0 0 0 0 0 0 0 0 0 0 0 0 0 0
0 0 0 0 0 0 0 0 0 0 0 0 0 0 0 0 0 0 0 0 0 0 0 0 0 0 0 0 0 0 0 0 0 0 0 0 0 0 0 0 0 0 0 0
0 0 0 0 0 0 0 0 0 0 0 0 0 0 0 0 0 0 0 0 0 0 0 0 0 0 0 0 0 0 0 0 0 0 0 0 0 0 0 0 0 0 0 0
0 0 0 0 0 0 0 0 0 0 0 0 0 0 0 0 0 0 0 0 0 0 0 0 0 0 0 0 0 0 0 0 0 0 0 0 0 0 0 0 0 0 0 0
Wind_Speed
9 7 8 9 10 9 10 11 12 10 9 7 3 3 5 7 8 9 10 11 10 9 8 7 7 6 5 5 5 5 6 7 8 8 8 8 9 9 10 10 11 11 11 11
12 10 9 11 11 11 10 10 10 10 9 3 1 2 4 6 8 10 10 10 10 9 8 8 7 6 5 5 5 5 6 8 7 8 8 9 9 9 10 10 10 11 11 12
12 9 9 12 9 7 6 6 7 8 4 2 1 3 5 6 8 9 9 9 10 9 9 7 7 6 6 5 5 6 7 7 8 8 9 9 10 10 10 10 11 11 11 11
10 8 12 6 1 4 6 7 6 7 5 2 2 2 4 6 8 8 8 8 9 8 8 8 7 6 6 6 6 6 7 7 8 8 9 9 9 10 10 10 10 10 11 11
8 10 10 6 4 5 6 7 4 4 4 2 1 4 7 9 9 9 8 8 8 8 8 7 7 6 6 6 6 7 7 7 7 8 9 9 10 10 10 10 10 11 11 11
7 8 7 1 5 1 5 7 0 2 4 3 4 7 3 5 8 9 8 7 7 7 7 7 7 6 6 7 7 7 7 7 7 8 9 10 10 11 10 10 10 11 11 11
9 9 6 5 3 4 6 5 6 4 5 5 7 8 3 3 6 7 8 9 9 8 8 7 7 7 7 7 7 7 6 7 7 8 9 10 10 10 10 10 10 11 12 11
6 8 2 6 0 3 7 9 8 8 8 8 9 9 5 4 5 6 8 9 10 9 8 7 7 8 8 8 7 6 6 8 8 8 9 8 9 10 10 10 11 11 10 10
4 3 5 3 4 6 8 9 10 10 11 9 10 9 8 6 6 7 8 8 9 9 8 8 8 8 9 8 6 6 7 8 9 9 9 9 9 10 10 9 9 9 9 9
5 4 3 4 6 8 9 9 10 10 10 9 9 8 6 5 5 6 7 7 7 8 9 8 8 9 9 7 7 7 8 8 8 9 9 8 8 8 8 8 8 9 9 9
8 5 4 5 10 11 10 10 9 9 8 7 6 6 4 3 4 4 4 5 6 6 7 8 7 8 8 8 7 8 9 9 9 9 9 8 8 8 9 9 7 9 10 10
4 6 6 6 9 11 10 11 11 10 10 9 7 6 5 3 2 1 2 3 4 6 6 7 7 7 7 8 8 9 9 9 8 8 7 8 8 8 8 11 9 12 13 12
3 4 5 5 8 10 10 10 11 11 11 11 10 8 7 5 4 3 2 2 3 4 5 5 6 7 7 7 9 10 10 9 8 8 7 8 8 8 9 7 12 15 16 15
3 4 6 8 8 10 11 11 11 12 13 12 11 10 8 7 5 4 3 3 3 4 5 5 6 6 6 7 8 10 11 9 9 8 8 8 8 8 8 9 9 8 8 14
9 8 9 8 9 11 11 12 12 13 13 13 12 11 10 9 8 6 5 5 4 4 5 5 6 7 6 7 8 10 10 9 8 8 8 8 8 9 8 9 9 9 8 5
9 9 9 9 10 11 12 13 12 12 12 12 12 11 10 9 8 8 8 7 6 7 7 7 8 8 7 7 8 9 9 11 10 9 9 8 8 8 8 8 8 8 8 7
8 9 9 10 10 11 11 11 10 11 11 11 12 12 11 11 10 10 10 9 8 8 9 9 10 9 8 9 9 9 9 9 11 10 10 9 8 8 8 8 8 8 7 5
9 8 8 8 9 9 9 10 10 10 10 11 11 11 11 11 11 12 12 11 11 10 9 10 11 11 10 10 9 9 9 9 8 8 8 7 7 7 8 8 8 8 7 4
7 6 7 7 7 7 9 10 10 10 10 10 11 11 11 11 11 12 12 12 12 11 11 12 11 12 12 10 8 8 9 9 9 8 7 6 7 9 8 8 7 7 7 6
5 6 7 8 8 9 9 10 10 10 10 10 10 11 11 11 11 12 12 12 9 11 13 13 14 12 11 8 7 8 9 9 9 8 7 7 7 7 7 7 6 6 6 6
5 7 8 9 9 10 10 10 10 10 10 10 10 11 11 11 12 12 12 11 11 11 13 13 11 10 9 8 7 9 9 8 8 8 7 6 6 6 6 6 5 5 5 5
6 8 10 10 11 11 10 10 11 11 10 10 11 11 12 12 13 12 12 9 11 10 12 13 11 10 11 11 9 9 8 8 7 6 6 5 5 5 5 5 5 4 5 5
7 9 10 11 11 11 12 11 11 11 11 11 12 12 12 12 11 11 11 9 11 12 12 12 10 9 11 10 8 7 7 7 6 5 5 4 4 4 4 4 4 4 4 5
9 10 10 11 11 12 12 12 12 11 12 13 12 12 12 11 10 9 11 11 10 11 13 9 7 8 10 8 7 6 5 5 4 4 4 3 3 3 3 3 3 3 4 5
10 11 11 11 12 11 11 12 13 12 13 11 13 13 11 9 10 10 11 13 12 11 12 9 6 7 8 7 6 5 4 3 3 4 3 3 2 3 3 3 3 4 4 4
10 10 10 10 11 10 11 10 10 10 11 11 11 10 10 10 11 10 9 12 15 12 11 9 8 7 6 6 4 4 3 1 1 2 3 3 3 3 3 3 5 4 4 4
11 11 9 10 10 10 10 10 11 11 11 11 11 11 12 12 11 11 12 11 10 10 9 8 7 6 6 4 4 3 3 3 3 3 3 3 3 3 3 3 3 4 4 4
Wind_Direction
274 279 278 280 281 268 257 271 283 293 294 305 302 238 213 201 194 192 190 190 192 194 192 197 205 213 227 240 253 268 274 278 283 286 287 285 285 286 287 286 285 287 287 285
265 258 262 270 272 274 266 262 267 275 283 327 1 217 208 202 200 202 201 201 198 199 200 204 211 219 226 237 250 258 269 279 286 288 287 286 287 288 289 288 289 289 286 286
266 264 262 260 260 264 256 251 265 278 315 55 219 220 220 212 213 216 212 205 202 203 206 209 211 216 225 235 247 258 269 279 284 286 287 289 292 293 292 292 291 289 287 287
264 262 257 272 296 274 275 273 264 275 289 265 280 274 237 225 222 222 217 208 204 206 205 206 205 208 220 236 246 258 270 277 284 288 290 291 291 291 292 291 291 289 288 287
259 255 253 249 211 229 253 274 271 266 269 241 197 245 231 211 217 224 220 210 205 207 207 202 203 208 216 237 251 262 271 279 287 292 293 292 292 294 295 294 292 289 287 287
242 265 269 4 80 106 264 261 87 232 262 237 205 266 295 163 200 216 213 202 200 198 199 199 206 206 219 240 253 265 276 283 289 290 290 290 293 294 294 293 290 290 290 291
245 253 262 48 88 199 248 4 19 315 287 258 240 274 335 169 191 204 205 201 198 200 201 203 201 203 224 245 256 269 278 281 282 285 285 284 287 288 290 290 292 291 291 289
242 251 272 66 114 285 351 348 333 319 302 285 268 267 255 229 204 201 204 205 202 203 207 203 200 207 228 244 257 265 268 272 277 281 284 289 288 286 287 288 287 285 284 286
284 319 44 19 345 347 340 323 320 319 312 299 280 271 256 240 225 216 214 211 208 208 212 208 204 214 234 244 249 255 262 270 276 281 281 282 284 285 283 280 283 292 296 297
268 274 332 2 13 359 345 329 321 318 314 306 289 283 272 249 233 226 220 215 212 212 217 215 212 219 232 244 244 248 258 266 271 275 277 279 280 280 284 290 295 298 299 299
263 290 313 39 19 360 353 350 347 344 340 332 316 304 292 265 246 236 223 215 211 216 225 227 223 226 232 234 235 246 255 261 267 271 275 280 276 276 282 287 294 292 298 301
328 22 344 8 11 5 8 12 11 8 9 8 359 344 336 322 310 278 238 218 219 223 229 232 229 231 234 234 231 240 250 255 265 271 275 276 280 280 249 244 253 244 250 265
329 6 36 39 27 19 23 27 28 28 25 20 17 9 1 357 357 348 321 267 247 244 240 239 240 243 241 237 237 241 251 261 268 273 275 275 279 284 291 271 237 237 238 239
83 104 77 54 44 35 33 36 39 39 36 30 25 19 14 10 7 0 340 309 281 267 259 257 258 259 255 247 240 244 251 254 252 261 266 272 277 280 283 291 297 293 245 223
82 87 84 69 54 44 36 32 33 31 27 24 23 18 12 5 358 352 339 326 311 290 282 280 275 272 265 257 248 249 254 258 256 262 266 269 273 275 278 283 288 293 299 264
99 88 76 61 46 35 29 25 21 17 13 9 8 7 4 359 353 351 347 339 325 310 305 295 283 279 271 260 256 252 250 249 251 261 264 265 268 272 276 283 287 291 296 303
91 71 54 42 33 25 19 13 7 1 359 357 352 351 351 350 347 347 343 337 325 314 308 303 298 297 285 266 257 258 258 244 218 240 254 261 269 274 277 282 286 290 294 308
75 60 42 26 13 4 357 354 351 348 345 342 341 343 343 343 342 341 337 332 323 314 314 317 318 309 290 272 260 259 259 261 252 249 255 259 270 276 276 278 283 289 291 281
60 40 22 10 356 345 341 339 338 337 335 335 336 337 336 337 337 334 332 326 321 321 333 330 326 307 295 283 268 257 258 260 259 254 253 249 251 261 269 273 280 288 294 300
38 14 359 351 348 342 335 334 331 329 330 332 330 330 332 335 333 330 327 319 328 337 333 329 318 307 301 291 275 268 260 256 256 256 255 258 260 266 272 276 282 291 297 304
359 347 341 338 337 333 331 329 324 320 321 322 322 323 325 325 325 325 322 321 332 341 331 317 307 312 311 312 278 270 265 259 257 257 257 260 266 273 278 283 291 298 300 305
332 331 331 331 328 324 323 317 311 309 311 313 315 317 317 317 318 318 315 319 325 346 330 318 319 333 329 311 286 275 267 260 260 262 264 270 276 278 282 289 295 300 305 310
317 318 319 319 318 315 310 305 304 307 308 309 308 307 308 311 310 309 312 327 328 338 321 318 334 325 309 294 287 283 279 272 266 265 269 272 274 278 282 291 302 306 314 320
305 306 307 308 307 302 301 305 307 304 299 295 293 296 299 299 301 308 317 321 323 320 315 325 316 307 294 288 289 288 285 280 273 271 275 274 275 281 291 302 309 311 318 321
300 298 297 299 297 299 304 301 297 294 292 293 296 300 299 301 307 311 312 314 319 314 315 321 311 304 297 306 308 306 299 307 317 305 289 292 306 311 321 330 331 326 325 327
292 290 295 295 294 292 291 294 296 299 300 301 302 303 304 304 304 307 308 312 318 321 316 321 326 317 314 320 323 326 326 330 308 308 328 328 332 336 349 349 338 334 332 334
282 280 277 277 283 289 297 299 298 298 297 297 301 305 304 304 305 308 312 315 319 321 325 328 331 330 330 339 343 349 1 11 10 353 342 343 348 352 2 354 346 340 336 349